Вернуться в каталог

COSMOS 2080

GLONASS

АктивенНавигацияMEO
NORAD 20620·PAYLOAD·🇷🇺 Russia

Запущен May 19, 1990 с Baikonur Cosmodrome

Loading…

Ближайшие Пролёты (ближайшие 24 часа)

TLE

СвежийSource: Space-Track

Эпоха: Sep 14, 2026, 12:42 UTC

1 20620U 90045B   26257.52920205 -.00000044  00000-0  00000+0 0  9993
2 20620  64.6463 305.2459 0023094  26.7594 334.9612  2.13103078282511

Отслеживайте COSMOS 2080 в реальном времени с AllMySat

Download on the App Store